When you browse on this site, cookies collect data to enhance your experience and personalize the content and advertising you see.
Visit our Privacy Policy to learn more. By continuing to use the site, you agree to this use of cookies and data.
  • En España
  • Lista de países
  • Para 7 días
  • Temperatura del agua
  • El tiempo en el mapa
  • Informadores
  • user-avatar
    Iniciar sesión

    Tiempo cada hora Gmyri

    Hoy, 7 Junio, Domingo

    Tiempo Temperatura Precipitaciones Viento Presión Humedad
    00:00 +15°C° 0 mm 2 mps 739 mmHg 92%
    01:00 +14°C° 0 mm 1 mps 740 mmHg 92%
    02:00 +14°C° 0 mm 1 mps 740 mmHg 93%
    03:00 +14°C° 0 mm 1 mps 740 mmHg 92%
    04:00 +14°C° 0 mm 1 mps 741 mmHg 92%
    05:00 +15°C° 0 mm 1 mps 741 mmHg 91%
    06:00 +16°C° 0 mm 1 mps 741 mmHg 87%
    07:00 +19°C° 0 mm 1 mps 742 mmHg 84%
    08:00 +20°C° 0 mm 1 mps 742 mmHg 80%
    09:00 +22°C° 0 mm 1 mps 742 mmHg 75%
    10:00 +23°C° 0 mm 2 mps 742 mmHg 70%
    11:00 +24°C° 0 mm 2 mps 743 mmHg 66%
    12:00 +25°C° 0 mm 2 mps 743 mmHg 64%
    13:00 +25°C° 0 mm 2 mps 742 mmHg 62%
    14:00 +25°C° 0 mm 2 mps 742 mmHg 60%
    15:00 +25°C° 0 mm 2 mps 742 mmHg 64%
    16:00 +25°C° 0 mm 2 mps 742 mmHg 68%
    17:00 +25°C° 0 mm 2 mps 742 mmHg 72%
    18:00 +23°C° 0 mm 2 mps 741 mmHg 75%
    19:00 +21°C° 0 mm 2 mps 741 mmHg 79%
    20:00 +19°C° 0 mm 2 mps 741 mmHg 82%
    21:00 +19°C° 0 mm 2 mps 741 mmHg 84%
    22:00 +18°C° 0 mm 2 mps 741 mmHg 86%
    23:00 +17°C° 0 mm 2 mps 742 mmHg 88%

    Mañana, 8 Junio, Lunes

    Tiempo Temperatura Precipitaciones Viento Presión Humedad
    00:00 +17°C° 0 mm 2 mps 742 mmHg 90%
    01:00 +17°C° 0 mm 2 mps 742 mmHg 92%
    02:00 +17°C° 0 mm 2 mps 742 mmHg 94%
    03:00 +17°C° 0 mm 2 mps 741 mmHg 94%
    04:00 +17°C° 0 mm 2 mps 741 mmHg 94%
    05:00 +18°C° 0 mm 2 mps 741 mmHg 94%
    06:00 +19°C° 0 mm 2 mps 741 mmHg 91%
    07:00 +21°C° 0 mm 3 mps 742 mmHg 87%
    08:00 +24°C° 0 mm 3 mps 742 mmHg 83%
    09:00 +25°C° 0 mm 3 mps 742 mmHg 79%
    10:00 +26°C° 0 mm 4 mps 742 mmHg 75%
    11:00 +27°C° 0 mm 4 mps 742 mmHg 71%
    12:00 +27°C° 0 mm 4 mps 742 mmHg 70%
    13:00 +27°C° 0 mm 4 mps 742 mmHg 68%
    14:00 +28°C° 0 mm 4 mps 741 mmHg 66%
    15:00 +27°C° 0 mm 3 mps 741 mmHg 68%
    16:00 +27°C° 0 mm 3 mps 741 mmHg 71%
    17:00 +27°C° 0 mm 2 mps 741 mmHg 73%
    18:00 +25°C° 0 mm 2 mps 741 mmHg 77%
    19:00 +24°C° 0 mm 2 mps 741 mmHg 80%
    20:00 +21°C° 0 mm 2 mps 741 mmHg 84%
    21:00 +20°C° 0 mm 2 mps 741 mmHg 85%
    22:00 +19°C° 0 mm 2 mps 741 mmHg 87%
    23:00 +19°C° 0 mm 2 mps 741 mmHg 88%

    Pasado mañana, 9 Junio, Martes

    Tiempo Temperatura Precipitaciones Viento Presión Humedad
    00:00 +18°C° 0 mm 2 mps 741 mmHg 90%
    01:00 +18°C° 0 mm 2 mps 741 mmHg 91%
    02:00 +18°C° 0 mm 2 mps 741 mmHg 92%
    03:00 +18°C° 0 mm 2 mps 741 mmHg 92%
    04:00 +18°C° 0 mm 2 mps 741 mmHg 93%
    05:00 +19°C° 0 mm 2 mps 741 mmHg 93%
    06:00 +20°C° 0 mm 2 mps 741 mmHg 89%
    07:00 +23°C° 0 mm 2 mps 742 mmHg 85%
    08:00 +24°C° 0 mm 2 mps 742 mmHg 81%
    09:00 +25°C° 0.1 mm 2 mps 742 mmHg 77%
    10:00 +26°C° 0.1 mm 2 mps 742 mmHg 73%
    11:00 +27°C° 0.1 mm 2 mps 742 mmHg 69%
    12:00 +27°C° 0.3 mm 3 mps 742 mmHg 68%
    13:00 +28°C° 0.3 mm 3 mps 742 mmHg 67%
    14:00 +28°C° 0.3 mm 3 mps 741 mmHg 66%
    15:00 +28°C° 0.3 mm 2 mps 741 mmHg 68%
    16:00 +28°C° 0.3 mm 2 mps 741 mmHg 70%
    17:00 +28°C° 0.3 mm 1 mps 741 mmHg 72%
    18:00 +26°C° 0.1 mm 1 mps 741 mmHg 76%
    19:00 +24°C° 0.1 mm 1 mps 741 mmHg 81%
    20:00 +23°C° 0.1 mm 1 mps 741 mmHg 85%
    21:00 +22°C° 0 mm 1 mps 741 mmHg 86%
    22:00 +21°C° 0 mm 1 mps 741 mmHg 88%
    23:00 +21°C° 0 mm 1 mps 742 mmHg 89%

    10 Junio, Miércoles

    Tiempo Temperatura Precipitaciones Viento Presión Humedad
    00:00 +20°C° 0 mm 1 mps 741 mmHg 90%
    01:00 +20°C° 0 mm 1 mps 741 mmHg 91%
    02:00 +19°C° 0 mm 1 mps 741 mmHg 92%
    03:00 +20°C° 0 mm 1 mps 741 mmHg 92%
    04:00 +20°C° 0 mm 1 mps 741 mmHg 92%
    05:00 +20°C° 0 mm 1 mps 741 mmHg 93%
    06:00 +22°C° 0 mm 1 mps 742 mmHg 88%
    07:00 +23°C° 0 mm 1 mps 742 mmHg 84%
    08:00 +25°C° 0 mm 1 mps 742 mmHg 80%
    09:00 +26°C° 0.3 mm 1 mps 742 mmHg 76%
    10:00 +27°C° 0.3 mm 1 mps 742 mmHg 71%
    11:00 +28°C° 0.3 mm 1 mps 742 mmHg 67%
    12:00 +28°C° 0.1 mm 2 mps 742 mmHg 67%
    13:00 +28°C° 0.1 mm 2 mps 741 mmHg 66%
    14:00 +28°C° 0.1 mm 2 mps 741 mmHg 65%
    15:00 +28°C° 0.3 mm 2 mps 741 mmHg 69%
    16:00 +28°C° 0.3 mm 2 mps 741 mmHg 72%
    17:00 +27°C° 0.3 mm 2 mps 741 mmHg 75%
    18:00 +26°C° 0.5 mm 2 mps 740 mmHg 79%
    19:00 +24°C° 0.5 mm 2 mps 740 mmHg 84%
    20:00 +21°C° 0.5 mm 2 mps 740 mmHg 88%
    21:00 +21°C° 0 mm 2 mps 741 mmHg 89%
    22:00 +20°C° 0 mm 2 mps 741 mmHg 91%
    23:00 +19°C° 0 mm 2 mps 741 mmHg 92%

    11 Junio, Jueves

    Tiempo Temperatura Precipitaciones Viento Presión Humedad
    00:00 +19°C° 0 mm 2 mps 741 mmHg 92%
    01:00 +18°C° 0 mm 2 mps 741 mmHg 93%
    02:00 +19°C° 0 mm 1 mps 741 mmHg 93%
    03:00 +18°C° 0 mm 2 mps 741 mmHg 93%
    04:00 +19°C° 0 mm 2 mps 740 mmHg 94%
    05:00 +19°C° 0 mm 2 mps 740 mmHg 94%
    06:00 +20°C° 0 mm 2 mps 741 mmHg 90%
    07:00 +23°C° 0 mm 2 mps 741 mmHg 87%
    08:00 +24°C° 0 mm 2 mps 741 mmHg 84%
    09:00 +25°C° 0.5 mm 2 mps 741 mmHg 79%
    10:00 +26°C° 0.5 mm 2 mps 741 mmHg 75%
    11:00 +27°C° 0.5 mm 2 mps 741 mmHg 71%
    12:00 +28°C° 0.3 mm 2 mps 740 mmHg 68%
    13:00 +28°C° 0.3 mm 2 mps 740 mmHg 65%
    14:00 +28°C° 0.3 mm 2 mps 740 mmHg 63%
    15:00 +28°C° 0.2 mm 2 mps 740 mmHg 66%
    16:00 +28°C° 0.2 mm 2 mps 740 mmHg 70%
    17:00 +27°C° 0.2 mm 2 mps 739 mmHg 74%
    18:00 +26°C° 0.1 mm 2 mps 739 mmHg 79%
    19:00 +24°C° 0.1 mm 2 mps 739 mmHg 83%
    20:00 +23°C° 0.1 mm 2 mps 739 mmHg 88%
    21:00 +21°C° 0 mm 2 mps 739 mmHg 90%
    22:00 +20°C° 0 mm 2 mps 740 mmHg 92%
    23:00 +19°C° 0 mm 2 mps 740 mmHg 93%

    12 Junio, Viernes

    Tiempo Temperatura Precipitaciones Viento Presión Humedad
    00:00 +19°C° 0 mm 2 mps 739 mmHg 94%
    01:00 +19°C° 0 mm 2 mps 739 mmHg 94%
    02:00 +18°C° 0 mm 2 mps 739 mmHg 94%
    03:00 +18°C° 0 mm 2 mps 739 mmHg 95%
    04:00 +19°C° 0 mm 2 mps 739 mmHg 95%
    05:00 +19°C° 0 mm 2 mps 739 mmHg 95%
    06:00 +20°C° 0.1 mm 2 mps 739 mmHg 92%
    07:00 +23°C° 0.1 mm 2 mps 739 mmHg 89%
    08:00 +24°C° 0.1 mm 2 mps 740 mmHg 86%
    09:00 +25°C° 0.4 mm 2 mps 739 mmHg 81%
    10:00 +26°C° 0.4 mm 3 mps 739 mmHg 77%
    11:00 +27°C° 0.4 mm 3 mps 739 mmHg 73%
    12:00 +28°C° 0.1 mm 3 mps 739 mmHg 72%
    13:00 +28°C° 0.1 mm 3 mps 739 mmHg 70%
    14:00 +28°C° 0.1 mm 3 mps 739 mmHg 69%
    15:00 +28°C° 0.3 mm 3 mps 739 mmHg 72%
    16:00 +28°C° 0.3 mm 3 mps 739 mmHg 76%
    17:00 +27°C° 0.3 mm 3 mps 738 mmHg 79%
    18:00 +26°C° 0.1 mm 2 mps 738 mmHg 82%
    19:00 +24°C° 0.1 mm 2 mps 738 mmHg 85%
    20:00 +23°C° 0.1 mm 2 mps 738 mmHg 88%
    21:00 +21°C° 0 mm 2 mps 738 mmHg 90%
    22:00 +20°C° 0 mm 3 mps 739 mmHg 92%
    23:00 +20°C° 0 mm 3 mps 739 mmHg 93%
    Mostrar más